Phillips, WI

5:22 AM CDT on March 26, 2017 (GMT -0500)
Price County

Weather History for KPBH - November, 2013

Change the Weather History Date:

Monday, November 25, 2013

  Actual Average Record
Temperature  
Mean Temperature 27 °F -  
Max Temperature 34 °F 33 °F 51 °F (1998)
Min Temperature 20 °F 20 °F 1 °F (1996)
Degree Days  
Heating Degree Days 38    
Moisture  
Dew Point 20 °F    
Average Humidity 71    
Maximum Humidity 78    
Minimum Humidity 63    
Precipitation  
Precipitation 0.00 in - - ()
Sea Level Pressure  
Sea Level Pressure 29.84 in    
Wind  
Wind Speed 12 mph (WSW)    
Max Wind Speed 21 mph    
Max Gust Speed 26 mph    
Visibility 10 miles    
Events Snow    
Averages and records for this station are not official NWS values.
T = Trace of Precipitation, MM = Missing Value Source: NWS Daily Summary

Daily Weather History Graph

Daily Weather History Graph

Search for Another Location

Airport or City:

Trip Planner

Search our weather history database for the weather conditions in past years. The results will help you decide how hot, cold, wet, or windy it might be!

Date:

Astronomy

Nov. 25, 2013 Rise Set
Actual Time 7:14 AM CST 4:22 PM CST
Civil Twilight 6:41 AM CST 4:55 PM CST
Nautical Twilight 6:05 AM CST 5:32 PM CST
Astronomical Twilight 5:29 AM CST 6:07 PM CST
Moon No Moon Rise 12:19 PM CST (11/25)
Length of Visible Light 10h 13m
Length of Day
9h 07m
Waning Gibbous, 51% of the Moon is Illuminated
Nov 25
Waning Gibbous
Nov 25
Last Quarter
Dec 2
New
Dec 9
First Quarter
Dec 17
Full

Hourly Weather History & Observations

Time (CST) Temp. Windchill Dew Point Humidity Pressure Visibility Wind Dir Wind Speed Gust Speed Precip Events Conditions
12:15 AM 20.8 °F 8.4 °F 10.4 °F 64% 29.91 in 10.0 mi SW 12.7 mph 24.2 mph N/A   Mostly Cloudy
12:35 AM 21.0 °F 6.6 °F 10.9 °F 65% 29.90 in 10.0 mi SSW 17.3 mph 23.0 mph N/A   Scattered Clouds
12:55 AM 21.2 °F 7.3 °F 10.9 °F 65% 29.88 in 10.0 mi SSW 16.1 mph 25.3 mph N/A   Scattered Clouds
1:15 AM 21.4 °F 6.6 °F 11.3 °F 65% 29.87 in 10.0 mi SSW 18.4 mph - N/A   Scattered Clouds
1:35 AM 21.7 °F 6.7 °F 11.7 °F 65% 29.87 in 10.0 mi SSW 19.6 mph 24.2 mph N/A   Scattered Clouds
1:55 AM 22.1 °F 8.5 °F 12.2 °F 66% 29.87 in 10.0 mi SW 16.1 mph 25.3 mph N/A   Mostly Cloudy
2:15 AM 22.6 °F 8.7 °F 12.7 °F 66% 29.85 in 10.0 mi SW 17.3 mph 26.5 mph N/A   Overcast
2:35 AM 23.0 °F 9.6 °F 13.3 °F 66% 29.84 in 10.0 mi SW 16.1 mph 24.2 mph N/A   Overcast
2:55 AM 23.7 °F 9.7 °F 14.0 °F 66% 29.83 in 10.0 mi SW 18.4 mph 24.2 mph N/A   Overcast
3:15 AM 23.5 °F 10.3 °F 14.9 °F 70% 29.83 in 10.0 mi SSW 16.1 mph 21.9 mph N/A Snow Light Snow
3:35 AM 23.9 °F 10.3 °F 14.9 °F 69% 29.83 in 10.0 mi SW 17.3 mph 25.3 mph N/A   Overcast
3:55 AM 24.3 °F 11.2 °F 15.4 °F 69% 29.82 in 10.0 mi SW 16.1 mph 23.0 mph N/A   Overcast
4:15 AM 23.9 °F 11.2 °F 16.7 °F 74% 29.82 in 10.0 mi SW 15.0 mph 26.5 mph N/A   Overcast
4:35 AM 23.9 °F 11.2 °F 17.6 °F 77% 29.82 in 7.0 mi SW 15.0 mph 24.2 mph N/A Snow Light Snow
4:55 AM 24.1 °F 11.5 °F 17.6 °F 76% 29.81 in 7.0 mi SW 15.0 mph 21.9 mph N/A   Overcast
5:15 AM 24.6 °F 10.1 °F 17.4 °F 74% 29.80 in 10.0 mi SW 20.7 mph 26.5 mph N/A   Overcast
5:35 AM 24.6 °F 12.2 °F 17.6 °F 75% 29.80 in 10.0 mi SW 15.0 mph 25.3 mph N/A   Overcast
5:55 AM 24.8 °F 12.9 °F 18.0 °F 75% 29.81 in 10.0 mi SW 13.8 mph 20.7 mph N/A   Overcast
6:15 AM 24.8 °F 12.9 °F 18.1 °F 76% 29.80 in 10.0 mi SW 13.8 mph 19.6 mph N/A   Overcast
6:35 AM 25.0 °F 13.1 °F 18.3 °F 76% 29.80 in 10.0 mi SW 13.8 mph 20.7 mph N/A   Overcast
6:55 AM 25.0 °F 12.6 °F 18.5 °F 76% 29.81 in 10.0 mi SW 15.0 mph 19.6 mph N/A   Overcast
7:15 AM 25.2 °F 13.9 °F 18.5 °F 76% 29.81 in 10.0 mi SW 12.7 mph 19.6 mph N/A   Overcast
7:35 AM 25.3 °F 14.7 °F 18.9 °F 76% 29.80 in 10.0 mi SW 11.5 mph 18.4 mph N/A   Overcast
7:55 AM 25.5 °F 14.9 °F 19.2 °F 77% 29.80 in 10.0 mi SW 11.5 mph - N/A   Overcast
8:15 AM 25.7 °F 15.1 °F 19.4 °F 77% 29.80 in 10.0 mi SW 11.5 mph - N/A   Overcast
8:35 AM 25.7 °F 14.0 °F 19.4 °F 77% 29.81 in 10.0 mi SW 13.8 mph 19.6 mph N/A   Overcast
8:55 AM 26.1 °F 16.2 °F 19.8 °F 77% 29.82 in 10.0 mi SW 10.4 mph 17.3 mph N/A   Overcast
9:15 AM 26.2 °F 15.2 °F 19.9 °F 77% 29.82 in 10.0 mi SW 12.7 mph 17.3 mph N/A   Overcast
9:35 AM 26.4 °F 16.0 °F 20.3 °F 78% 29.82 in 10.0 mi SW 11.5 mph 18.4 mph N/A   Overcast
9:55 AM 27.0 °F 16.1 °F 20.5 °F 77% 29.82 in 10.0 mi SW 12.7 mph - N/A   Overcast
10:15 AM 27.1 °F 17.5 °F 21.0 °F 78% 29.82 in 10.0 mi SW 10.4 mph 18.4 mph N/A   Overcast
10:35 AM 27.5 °F 18.0 °F 21.6 °F 78% 29.82 in 10.0 mi SW 10.4 mph 18.4 mph N/A   Overcast
10:55 AM 28.0 °F 20.0 °F 21.7 °F 77% 29.82 in 10.0 mi SW 8.1 mph - N/A   Overcast
11:15 AM 28.6 °F 19.9 °F 22.1 °F 77% 29.81 in 10.0 mi WSW 9.2 mph 16.1 mph N/A   Overcast
11:35 AM 30.2 °F 22.6 °F 23.0 °F 75% 29.81 in 10.0 mi WSW 8.1 mph - N/A   Overcast
11:55 AM 31.1 °F 22.4 °F 23.7 °F 74% 29.81 in 10.0 mi SW 10.4 mph - N/A   Mostly Cloudy
12:15 PM 32.0 °F 24.2 °F 23.9 °F 72% 29.81 in 10.0 mi WSW 9.2 mph - N/A   Mostly Cloudy
12:35 PM 33.3 °F 25.1 °F 24.3 °F 70% 29.81 in 10.0 mi WSW 10.4 mph - N/A   Mostly Cloudy
12:55 PM 33.1 °F 26.1 °F 24.6 °F 71% 29.81 in 10.0 mi WSW 8.1 mph - N/A   Overcast
1:15 PM 33.8 °F 28.6 °F 24.4 °F 69% 29.81 in 10.0 mi West 5.8 mph - N/A   Overcast
1:35 PM 33.8 °F 29.6 °F 24.4 °F 69% 29.81 in 10.0 mi West 4.6 mph - N/A   Overcast
1:55 PM 33.8 °F 29.6 °F 24.4 °F 69% 29.81 in 10.0 mi West 4.6 mph - N/A   Overcast
2:15 PM 34.0 °F - 24.4 °F 68% 29.81 in 10.0 mi Calm Calm - N/A   Overcast
2:35 PM 33.8 °F - 24.1 °F 68% 29.82 in 10.0 mi Calm Calm - N/A   Overcast
2:55 PM 33.8 °F 29.6 °F 23.7 °F 67% 29.82 in 10.0 mi West 4.6 mph - N/A   Overcast
3:15 PM 33.8 °F 29.6 °F 23.7 °F 67% 29.83 in 10.0 mi WSW 4.6 mph - N/A   Overcast
3:35 PM 33.8 °F 29.6 °F 23.5 °F 66% 29.84 in 10.0 mi West 4.6 mph - N/A   Overcast
3:55 PM 33.8 °F 29.6 °F 23.4 °F 66% 29.85 in 10.0 mi West 4.6 mph - N/A   Overcast
4:15 PM 33.4 °F 28.1 °F 23.0 °F 66% 29.85 in 10.0 mi WSW 5.8 mph - N/A   Overcast
4:35 PM 33.3 °F 27.9 °F 23.0 °F 66% 29.86 in 10.0 mi WSW 5.8 mph - N/A   Overcast
4:55 PM 32.9 °F 28.5 °F 23.2 °F 67% 29.86 in 10.0 mi West 4.6 mph - N/A   Overcast
5:15 PM 32.9 °F 28.5 °F 23.2 °F 67% 29.87 in 10.0 mi WSW 4.6 mph - N/A   Overcast
5:35 PM 32.7 °F 28.3 °F 23.4 °F 68% 29.87 in 10.0 mi WSW 4.6 mph - N/A   Overcast
5:55 PM 32.7 °F 28.3 °F 23.4 °F 68% 29.87 in 10.0 mi WSW 4.6 mph - N/A   Overcast
6:15 PM 32.5 °F 29.3 °F 23.5 °F 69% 29.88 in 10.0 mi WSW 3.5 mph - N/A   Overcast
6:35 PM 32.5 °F 27.1 °F 23.4 °F 69% 29.88 in 10.0 mi WSW 5.8 mph - N/A   Overcast
6:55 PM 32.4 °F 26.0 °F 23.2 °F 69% 29.88 in 10.0 mi WSW 6.9 mph - N/A   Overcast
7:15 PM 32.2 °F 26.7 °F 23.0 °F 69% 29.89 in 10.0 mi WSW 5.8 mph - N/A   Overcast
7:35 PM 32.0 °F 24.2 °F 22.8 °F 69% 29.88 in 10.0 mi WSW 9.2 mph - N/A   Overcast
7:55 PM 32.0 °F 23.6 °F 22.5 °F 68% 29.89 in 10.0 mi WSW 10.4 mph - N/A   Overcast
8:15 PM 32.0 °F 24.8 °F 22.1 °F 67% 29.89 in 10.0 mi WSW 8.1 mph 16.1 mph N/A   Overcast
8:35 PM 32.0 °F 25.6 °F 22.3 °F 67% 29.88 in 10.0 mi WSW 6.9 mph - N/A   Overcast
8:55 PM 32.0 °F 26.4 °F 22.1 °F 67% 29.88 in 10.0 mi West 5.8 mph - N/A   Overcast
9:15 PM 31.8 °F 24.6 °F 22.6 °F 69% 29.87 in 10.0 mi WSW 8.1 mph - N/A   Overcast
9:35 PM 32.0 °F 26.4 °F 23.0 °F 69% 29.88 in 10.0 mi West 5.8 mph - N/A   Overcast
9:55 PM 31.6 °F 25.1 °F 23.7 °F 73% 29.88 in 10.0 mi NW 6.9 mph - N/A   Overcast
10:15 PM 29.3 °F 22.3 °F 22.5 °F 76% 29.88 in 10.0 mi WNW 6.9 mph - N/A   Overcast
10:35 PM 29.3 °F 20.8 °F 21.9 °F 74% 29.88 in 10.0 mi NW 9.2 mph - N/A   Overcast
10:55 PM 29.3 °F 20.2 °F 21.4 °F 72% 29.89 in 10.0 mi NW 10.4 mph - N/A   Overcast
11:15 PM 29.3 °F 22.3 °F 21.2 °F 72% 29.89 in 10.0 mi WNW 6.9 mph - N/A   Overcast
11:35 PM 29.3 °F 22.3 °F 18.9 °F 65% 29.90 in 10.0 mi West 6.9 mph - N/A   Overcast
11:55 PM 28.8 °F 19.0 °F 17.4 °F 63% 29.90 in 10.0 mi WNW 11.5 mph 18.4 mph N/A   Overcast